Leesburg, FL

5:36 AM EST on December 08, 2019 (GMT -0500)
Leesburg Regional

Weather History for KLEE - October, 2019

Change the Weather History Date:

Sunday, October 6, 2019

  Actual Average Record
Temperature  
Mean Temperature 83 °F -  
Max Temperature 91 °F 86 °F 92 °F (1971)
Min Temperature 75 °F 66 °F 54 °F (1987)
Cooling Degree Days 18    
Growing Degree Days 33 (Base 50)    
Moisture  
Dew Point 70 °F    
Average Humidity 71    
Maximum Humidity 88    
Minimum Humidity 47    
Precipitation  
Precipitation 0.03 in - - ()
Sea Level Pressure  
Sea Level Pressure 30.02 in    
Wind  
Wind Speed 10 mph (NE)    
Max Wind Speed 18 mph    
Max Gust Speed 26 mph    
Visibility 10 miles    
Events      
Averages and records for this station are not official NWS values.
T = Trace of Precipitation, MM = Missing Value Source: NWS Daily Summary

Daily Weather History Graph

Daily Weather History Graph

Search for Another Location

Airport or City:

Astronomy

Oct. 06, 2019 Rise Set
Actual Time 7:22 AM EDT 7:07 PM EDT
Civil Twilight 6:59 AM EDT 7:31 PM EDT
Nautical Twilight 6:31 AM EDT 7:58 PM EDT
Astronomical Twilight 6:04 AM EDT 8:25 PM EDT
Moon 3:10 PM EDT (10/6) 12:55 AM EDT (10/6)
Length of Visible Light 12h 31m
Length of Day
11h 44m
First Quarter, 59% of the Moon is Illuminated
Oct 6
First Quarter
Oct 13
Full
Oct 21
Last Quarter
Oct 27
New
Nov 4
First Quarter

Hourly Weather History & Observations

Time (EDT) Temp. Heat Index Dew Point Humidity Pressure Visibility Wind Dir Wind Speed Gust Speed Precip Events Conditions
12:53 AM 75.9 °F - 71.1 °F 85% 30.02 in 10.0 mi NE 6.9 mph - N/A   Clear
1:53 AM 77.0 °F - 71.1 °F 82% 30.01 in 10.0 mi ENE 6.9 mph - N/A   Clear
2:53 AM 75.9 °F - 70.0 °F 82% 30.01 in 10.0 mi NE 8.1 mph - N/A   Clear
3:53 AM 75.9 °F - 72.0 °F 87% 29.99 in 10.0 mi NE 6.9 mph - N/A   Clear
4:53 AM 77.0 °F - 71.1 °F 82% 30.00 in 10.0 mi ENE 9.2 mph - N/A   Scattered Clouds
5:53 AM 75.9 °F - 70.0 °F 82% 30.01 in 10.0 mi ENE 10.4 mph - N/A   Clear
6:53 AM 75.9 °F - 70.0 °F 82% 30.01 in 10.0 mi ENE 6.9 mph - N/A   Mostly Cloudy
7:53 AM 77.0 °F - 71.1 °F 82% 30.03 in 10.0 mi NE 9.2 mph - N/A   Overcast
8:53 AM 80.1 °F 83.6 °F 71.1 °F 74% 30.04 in 10.0 mi ENE 11.5 mph - N/A   Clear
9:53 AM 82.9 °F 87.5 °F 71.1 °F 67% 30.06 in 10.0 mi NE 17.3 mph 20.7 mph N/A   Clear
10:53 AM 87.1 °F 92.0 °F 70.0 °F 57% 30.06 in 10.0 mi East 13.8 mph 20.7 mph N/A   Scattered Clouds
11:53 AM 88.0 °F 92.1 °F 69.1 °F 53% 30.06 in 10.0 mi NE 16.1 mph 21.9 mph N/A   Scattered Clouds
12:53 PM 89.1 °F 92.9 °F 68.0 °F 50% 30.04 in 10.0 mi ENE 17.3 mph 26.5 mph N/A   Clear
1:53 PM 91.0 °F 95.2 °F 68.0 °F 47% 30.02 in 10.0 mi NE 18.4 mph 26.5 mph N/A   Partly Cloudy
2:53 PM 88.0 °F 91.4 °F 68.0 °F 51% 30.00 in 10.0 mi NE 17.3 mph 25.3 mph N/A   Scattered Clouds
3:53 PM 88.0 °F 91.4 °F 68.0 °F 51% 29.99 in 10.0 mi ENE 13.8 mph - N/A   Partly Cloudy
4:53 PM 88.0 °F 91.4 °F 68.0 °F 51% 29.99 in 10.0 mi ENE 13.8 mph 21.9 mph N/A   Partly Cloudy
5:53 PM 84.9 °F 88.8 °F 69.1 °F 59% 29.99 in 10.0 mi ENE 13.8 mph - N/A   Scattered Clouds
6:53 PM 82.9 °F 87.0 °F 70.0 °F 65% 29.99 in 10.0 mi NE 12.7 mph - N/A   Partly Cloudy
7:53 PM 81.0 °F 84.9 °F 71.1 °F 72% 29.99 in 10.0 mi NE 9.2 mph - N/A   Clear
8:53 PM 80.1 °F 83.6 °F 71.1 °F 74% 30.00 in 10.0 mi NE 10.4 mph - N/A   Clear
9:53 PM 80.1 °F 83.6 °F 71.1 °F 74% 30.02 in 10.0 mi NE 9.2 mph - N/A   Mostly Cloudy
10:53 PM 77.0 °F - 73.0 °F 88% 30.02 in 10.0 mi ENE 9.2 mph - 0.01 in   Scattered Clouds
11:40 PM 77.0 °F - 73.0 °F 88% 30.02 in 10.0 mi ENE 9.2 mph - 0.02 in   Overcast
11:53 PM 77.0 °F - 73.0 °F 88% 30.01 in 6.0 mi ENE 11.5 mph - 0.02 in   Overcast